Content
SEND FEEDBACK

Daily
Averages
Monthly
Summary
United States of America

LIBERTY, COLORADO


Home > North America > United States > Colorado
Elevation: 4390 feet     Latitude: 37 19N     Longitude: 102 43W

WEATHER
 
SELECT A DAY
Number of Records: 137,525;   Date Range: 6/25/98 - 7/29/14
 
SHARE

PRINT THIS DATA

[ ← Previous Day ]
WEATHER ALMANAC - JANUARY 31, 2013
[ Next Day → ]
[ °C ]   °F
Weather ElementAverageHighLow
Temperature33.8 °F45 °F (2:56 pm)19.9 °F (11:56 pm)
Dewpoint19.6 °F23 °F (9:56 am)16 °F (1:56 am)
Humidity58.3 %89 % (11:56 pm)40 % (8:56 am)
Barometer30.11 in30.24 in (6:56 pm)29.93 in (3:56 am)
Wind Speed11.4 mph17.3 mph (9:56 am)
Wind Gust24.2 mph (8:56 am)
Weather ElementAverage
Wind DirectionS (176.3 °)

Weather ElementTotal
Precipitation---
Heating Degree Days32.6 (Base 65)
Averaged from 24 records on January 31, 2013
WEATHER CONDITIONS BREAKOUT
WIND DIRECTION BREAKOUT
WEATHER BY HOUR - JANUARY 31, 2013
[ °C ]   °F
Local TimeTemperatureDewpointHumidityBarometerVisibilityWind DirectionWind SpeedGust SpeedPrecipitationEventsConditions
1:56 AM27.0 °F16.0 °F63 %29.94 inWNW (290°)9.2 mph
2:56 AM28.0 °F16.0 °F61 %29.95 inWNW (290°)11.5 mph
3:56 AM28.9 °F16.0 °F58 %29.93 inWNW (290°)15.0 mph
4:56 AM28.9 °F16.0 °F58 %29.95 inWNW (300°)15.0 mph
5:56 AM30.0 °F16.0 °F56 %29.99 inWNW (300°)15.0 mph
6:56 AM28.0 °F17.1 °F63 %30.04 inWNW (300°)10.4 mph
7:56 AM35.1 °F18.0 °F50 %30.06 inNW (310°)15.0 mph
8:56 AM42.1 °F19.0 °F40 %30.06 inNW (320°)15.0 mph24.2 mph
9:56 AM44.1 °F23.0 °F43 %30.09 inNE (50°)17.3 mph
10:03 AM42.8 °F21.2 °F42 %30.08 inNNE (30°)15.0 mph
10:56 AM43.0 °F19.9 °F40 %30.12 inNE (40°)16.1 mph
11:56 AM42.1 °F21.0 °F43 %30.14 inENE (60°)12.7 mph
12:56 PM43.0 °F21.9 °F43 %30.13 inENE (70°)3.5 mph
1:56 PM44.1 °F21.9 °F42 %30.12 inNE (50°)5.8 mph
2:56 PM45.0 °F21.9 °F40 %30.13 inVariable6.9 mph
3:56 PM43.0 °F21.9 °F43 %30.13 inSE (140°)10.4 mph
4:56 PM39.0 °F23.0 °F53 %30.16 inSSE (150°)10.4 mph
5:56 PM30.0 °F21.9 °F72 %30.21 inSouth (170°)8.1 mph
6:56 PM28.0 °F21.0 °F75 %30.24 inSouth (190°)8.1 mph
7:56 PM27.0 °F21.0 °F78 %30.22 inSouth (170°)8.1 mph
8:56 PM26.1 °F21.0 °F81 %30.21 inSouth (180°)9.2 mph
9:56 PM26.1 °F19.9 °F78 %30.19 inSouth (180°)12.7 mph
10:56 PM21.0 °F18.0 °F88 %30.23 inSSE (160°)9.2 mph
11:56 PM19.9 °F17.1 °F89 %30.22 inSouth (190°)15.0 mph
Hourly data recorded from KSPD, located miles away from Liberty, Colorado







STORIES FROM OUR PARTNERS